TimeEDT,TemperatureF,Dew PointF,Humidity,Sea Level PressureIn,VisibilityMPH,Wind Direction,Wind SpeedMPH,Gust SpeedMPH,PrecipitationIn,Events,Conditions,WindDirDegrees,DateUTC
12:53 AM,82.0,72.0,71,29.72,10.0,SSW,13.8,-,N/A,,Mostly Cloudy,200,2013-06-13 04:53:00
1:53 AM,81.0,72.0,74,29.68,10.0,SSW,13.8,21.9,N/A,,Partly Cloudy,210,2013-06-13 05:53:00
2:53 AM,82.0,72.0,71,29.65,10.0,SSW,15.0,21.9,N/A,,Mostly Cloudy,210,2013-06-13 06:53:00
3:53 AM,82.0,72.0,71,29.64,10.0,SW,13.8,23.0,N/A,,Overcast,220,2013-06-13 07:53:00
4:53 AM,81.0,72.0,74,29.65,10.0,West,15.0,23.0,N/A,,Overcast,270,2013-06-13 08:53:00
5:53 AM,80.1,71.1,74,29.64,10.0,SW,10.4,-,N/A,,Mostly Cloudy,230,2013-06-13 09:53:00
6:53 AM,80.1,71.1,74,29.63,10.0,WSW,10.4,-,N/A,,Mostly Cloudy,240,2013-06-13 10:53:00
7:53 AM,81.0,71.1,72,29.62,10.0,SW,13.8,-,N/A,,Partly Cloudy,220,2013-06-13 11:53:00
8:53 AM,81.0,71.1,72,29.62,10.0,WSW,15.0,23.0,N/A,,Partly Cloudy,240,2013-06-13 12:53:00
9:17 AM,68.0,66.2,94,29.73,3.0,West,16.1,28.8,0.21,Rain,Heavy Rain,280,2013-06-13 13:17:00
9:26 AM,66.2,66.2,100,29.71,3.0,Variable,6.9,25.3,0.54,Rain-Thunderstorm,Heavy Thunderstorms and Rain,0,2013-06-13 13:26:00
9:53 AM,68.0,66.0,93,29.72,10.0,West,4.6,-,0.64,Rain,Light Rain,280,2013-06-13 13:53:00
10:53 AM,70.0,66.9,90,29.70,10.0,NNE,4.6,-,0.00,,Mostly Cloudy,20,2013-06-13 14:53:00
11:29 AM,71.6,66.2,83,29.75,10.0,NNW,12.7,-,N/A,,Mostly Cloudy,330,2013-06-13 15:29:00
11:53 AM,72.0,66.0,81,29.75,10.0,NNW,12.7,-,N/A,,Overcast,330,2013-06-13 15:53:00
12:00 PM,71.6,66.2,83,29.77,10.0,NNW,10.4,-,N/A,,Overcast,340,2013-06-13 16:00:00
12:09 PM,71.6,66.2,83,29.77,10.0,North,8.1,-,N/A,,Overcast,350,2013-06-13 16:09:00
12:21 PM,71.6,64.4,78,29.78,10.0,North,11.5,-,N/A,,Overcast,350,2013-06-13 16:21:00
12:50 PM,73.4,64.4,73,29.79,10.0,NNW,11.5,17.3,0.00,,Overcast,330,2013-06-13 16:50:00
12:53 PM,73.0,64.9,76,29.77,10.0,NNW,11.5,17.3,0.00,,Overcast,330,2013-06-13 16:53:00
1:43 PM,66.2,64.4,94,29.81,2.5,North,16.1,32.2,0.02,Rain,Heavy Rain,350,2013-06-13 17:43:00
1:46 PM,66.2,64.4,94,29.82,1.8,North,17.3,32.2,0.02,Rain,Heavy Rain,350,2013-06-13 17:46:00
1:51 PM,66.2,64.4,94,29.81,5.0,North,12.7,-,0.02,Rain,Rain,360,2013-06-13 17:51:00
1:53 PM,66.9,64.9,93,29.80,5.0,North,10.4,-,0.02,Rain,Light Rain,10,2013-06-13 17:53:00
2:53 PM,75.0,66.0,73,29.81,10.0,NNW,9.2,18.4,0.00,,Mostly Cloudy,340,2013-06-13 18:53:00
3:53 PM,77.0,57.9,52,29.83,10.0,North,16.1,21.9,N/A,,Partly Cloudy,360,2013-06-13 19:53:00
4:53 PM,78.1,55.9,46,29.84,10.0,NNW,17.3,21.9,N/A,,Mostly Cloudy,340,2013-06-13 20:53:00
5:53 PM,78.1,55.9,46,29.83,10.0,NW,15.0,20.7,N/A,,Mostly Cloudy,320,2013-06-13 21:53:00
6:53 PM,77.0,55.0,47,29.84,10.0,NNW,12.7,-,N/A,,Partly Cloudy,330,2013-06-13 22:53:00
7:53 PM,77.0,53.1,43,29.85,10.0,NNW,13.8,20.7,N/A,,Partly Cloudy,340,2013-06-13 23:53:00
8:53 PM,73.9,55.9,53,29.87,10.0,NNW,9.2,-,N/A,,Partly Cloudy,330,2013-06-14 00:53:00
9:53 PM,72.0,55.9,57,29.89,10.0,NW,5.8,-,N/A,,Clear,310,2013-06-14 01:53:00
10:53 PM,70.0,55.9,61,29.92,10.0,NW,6.9,-,N/A,,Clear,320,2013-06-14 02:53:00
11:53 PM,68.0,55.0,63,29.93,10.0,NW,10.4,-,N/A,,Clear,320,2013-06-14 03:53:00